Tracking 27380 objects as of 6-Jun-2023
HD Live streaming from Space Station
objects crossing your sky now

OPS 4682 DEB

Track OPS 4682 DEB now!
10-day predictions


NORAD ID: 38408
Int'l Code: 1965-027DM
Perigee: 1,234.8 km
Apogee: 1,293.4 km
Inclination: 90.3 °
Period: 110.7 minutes
Semi major axis: 7635 km
RCS: 0.011 m2 (small)
Launch date: April 3, 1965
Source: United States (US)
Launch site: AIR FORCE WESTERN TEST RANGE (AFWTR)

Note: This is SATELLITE DEBRIS
Your satellite tracking list
Your tracking list is empty




NASA's NSSDC Master Catalog

Two Line Element Set (TLE):
1 38408U 65027DM  23155.29229257  .00001216  00000-0  39296-2 0  9998
2 38408  90.2784 346.8640 0038386 230.5681 129.2042 13.01320476460949
Source of the keplerian elements: AFSPC